CZ-2D DEB

Satellite information

Favourite Embed

Satellite Type and Status

DEBRISIN ORBIT

Key statistics

Satellite CZ-2D DEB at a glance.

Uptime

3221

Days in orbit

Revolutions

≈ 14.0

Per day

Orbit

SSO

Sun Synchronous Orbit

Inclination

98.5

Latest

Satellite identification and parameters

Extended collection of information and parameters for CZ-2D DEB.

Object identification

Identified? True

Debris? True

Object name: CZ-2D DEB

International designator: 2016-068G

Object number (NORAD): 44607

Object ID (CCSDS): 44607

Country: PEOPLES REPUBLIC OF CHINA (PRC)

Current information (Y/N): Y

RCS size: SMALL

Orbital parameters

Period: 103.122 minutes

Inclination: 98.4825 deg

SMA: 7284.388 km

Apoapsis: 1054.622 km

Periapsis: 757.884 km

RAAN: 37.171 deg

Eccentricy: 0.02036807

Argument of periapsis: 248.3979 deg

Mean anomaly: 109.5376 deg

Mean motion: 13.96410735 rev/day

Mean motion (dot): 0.00000991 rev/day2

B* drag term: 0.00062766097 1/REarth

Two-line elements (TLE)

Creation date: Sept. 4, 2025, 10:13 a.m.

Reference frame: TEME

Reference center: EARTH

Epoch: Sept. 4, 2025, 3:35 a.m. UTC

TLE line 0: 0 CZ-2D DEB

TLE line 1: 1 44607U 16068G 25247.14981558 .00000991 00000-0 62766-3 0 9992

TLE line 2: 2 44607 98.4825 37.1710 0203681 248.3979 109.5376 13.96410735440907

Live tracking on map

Real-time ground track for satellite CZ-2D DEB.

In-orbit conjunctions

A list of the most updated potential collisions computed for object CZ-2D DEB.

Target Orbit TCA Probability of collision Miss distance Type
FENGYUN 1C DEB SSO 2025-07-12 03:08:40 0.0001059872 450.0 (m) DEBRIS
NOAA 16 DEB SSO 2024-08-28 01:37:01 0.000109769 393.0 (m) DEBRIS
ATLAS 2AS CENTAUR R/B LEO 2024-07-18 08:00:45 0.0002496571 715.0 (m) ROCKET BODY

Associated space launch

The Yunhai-1 satellite is designed for detecting environmental elements in the atmosphere and ocean, the space environment, disaster prevention and reduction, and scientific experimentation. It is made by the Shanghai Institute of Spaceflight Technology.

CZ-2D DEB was lifted into orbit during the mission ‘Long March 2D | YunHai 1-01’, on board a Long March 2D space rocket.

The launch took place on Nov. 11, 2016, 11:14 p.m. from Launch Area 4 (SLS-2 / 603).

For more information about the launch, click the button.

Launch to space Long March 2D | YunHai 1-01
Long March 2D | YunHai 1-01

Agency: N/A

Status: Launch Successful

Launch date: Nov. 11, 2016, 11:14 p.m. UTC

Rocket: Long March 2D

Launch pad: Launch Area 4 (SLS-2 / 603)

Location: Jiuquan Satellite Launch Center, People's Republic of China

...

Latest news about this satellite

There are no fresh news available about this satellite. Check back as we update our databases every day.


Newsletter sign-up

Weekly statistics, charts and insights to help you stay on top of the space industry.